Antigo, WI

10:24 PM CST on December 08, 2016 (GMT -0600)
Langlade County

Weather History for KAIG - April, 2014

Change the Weather History Date:

Thursday, April 10, 2014

  Actual Average Record
Temperature  
Mean Temperature 44 °F -  
Max Temperature 54 °F 48 °F 81 °F (1977)
Min Temperature 34 °F 26 °F 12 °F (1989)
Degree Days  
Heating Degree Days 21    
Moisture  
Dew Point 28 °F    
Average Humidity 51    
Maximum Humidity 77    
Minimum Humidity 29    
Precipitation  
Precipitation 0.00 in - - ()
Sea Level Pressure  
Sea Level Pressure 29.67 in    
Wind  
Wind Speed 13 mph (West)    
Max Wind Speed 25 mph    
Max Gust Speed 33 mph    
Visibility 10 miles    
Events      
Averages and records for this station are not official NWS values.
T = Trace of Precipitation, MM = Missing Value Source: NWS Daily Summary

Daily Weather History Graph

Daily Weather History Graph

Search for Another Location

Airport or City:

Trip Planner

Search our weather history database for the weather conditions in past years. The results will help you decide how hot, cold, wet, or windy it might be!

Date:

Astronomy

Apr. 10, 2014 Rise Set
Actual Time 6:20 AM CDT 7:35 PM CDT
Civil Twilight 5:50 AM CDT 8:06 PM CDT
Nautical Twilight 5:13 AM CDT 8:42 PM CDT
Astronomical Twilight 4:34 AM CDT 9:21 PM CDT
Moon 3:08 PM CDT (4/10) 3:55 AM CDT (4/10)
Length of Visible Light 14h 16m
Length of Day
13h 15m
Waxing Gibbous, 80% of the Moon is Illuminated
Apr 10
Waxing Gibbous
Apr 15
Full
Apr 22
Last Quarter
Apr 29
New
May 6
First Quarter

Hourly Weather History & Observations

Time (CDT) Temp. Windchill Dew Point Humidity Pressure Visibility Wind Dir Wind Speed Gust Speed Precip Events Conditions
12:15 AM 45.9 °F 39.7 °F 31.8 °F 58% 29.54 in 10.0 mi SSW 13.8 mph - N/A   Clear
12:35 AM 45.7 °F 39.5 °F 31.8 °F 58% 29.54 in 10.0 mi SSW 13.8 mph - N/A   Clear
12:55 AM 45.9 °F 39.7 °F 31.8 °F 58% 29.55 in 10.0 mi SSW 13.8 mph - N/A   Clear
1:15 AM 45.9 °F 41.2 °F 32.0 °F 58% 29.56 in 10.0 mi SW 9.2 mph - N/A   Mostly Cloudy
1:35 AM 45.1 °F 39.9 °F 32.2 °F 60% 29.53 in 10.0 mi SSW 10.4 mph - N/A   Overcast
1:55 AM 46.8 °F - 32.0 °F 57% 29.52 in 10.0 mi SSW 11.5 mph 21.9 mph N/A   Scattered Clouds
2:15 AM 47.8 °F - 32.0 °F 54% 29.50 in 10.0 mi SSW 17.3 mph - N/A   Scattered Clouds
2:55 AM 48.7 °F - 32.9 °F 54% 29.50 in 10.0 mi SW 16.1 mph 23.0 mph N/A   Scattered Clouds
3:15 AM 48.6 °F - 33.1 °F 55% 29.51 in 10.0 mi WSW 15.0 mph 21.9 mph N/A   Scattered Clouds
3:35 AM 48.0 °F - 33.6 °F 57% 29.51 in 10.0 mi WSW 12.7 mph 18.4 mph N/A   Mostly Cloudy
3:55 AM 47.3 °F - 33.8 °F 59% 29.51 in 10.0 mi WSW 10.4 mph - N/A   Overcast
4:15 AM 47.5 °F - 34.2 °F 60% 29.51 in 10.0 mi WSW 11.5 mph - N/A   Mostly Cloudy
4:35 AM 48.2 °F - 34.7 °F 60% 29.53 in 10.0 mi West 11.5 mph - N/A   Scattered Clouds
4:55 AM 48.0 °F - 34.7 °F 60% 29.54 in 10.0 mi West 11.5 mph - N/A   Clear
5:15 AM 47.3 °F - 35.4 °F 63% 29.55 in 10.0 mi West 15.0 mph 21.9 mph N/A   Clear
5:35 AM 46.4 °F 41.5 °F 36.1 °F 67% 29.56 in 10.0 mi WNW 10.4 mph 16.1 mph N/A   Mostly Cloudy
5:55 AM 45.5 °F 39.9 °F 36.5 °F 71% 29.56 in 10.0 mi NW 11.5 mph - N/A   Mostly Cloudy
6:15 AM 44.6 °F 39.2 °F 36.5 °F 73% 29.58 in 10.0 mi WNW 10.4 mph - N/A   Scattered Clouds
6:35 AM 44.6 °F 38.8 °F 35.8 °F 71% 29.59 in 10.0 mi NW 11.5 mph - N/A   Mostly Cloudy
6:55 AM 43.2 °F 38.4 °F 35.6 °F 75% 29.59 in 10.0 mi NW 8.1 mph - N/A   Overcast
7:15 AM 42.6 °F 38.4 °F 35.2 °F 75% 29.60 in 10.0 mi NW 6.9 mph - N/A   Overcast
7:35 AM 43.0 °F 36.4 °F 34.9 °F 73% 29.61 in 10.0 mi WNW 12.7 mph 18.4 mph N/A   Overcast
7:55 AM 42.8 °F 37.0 °F 34.7 °F 73% 29.61 in 10.0 mi WNW 10.4 mph - N/A   Overcast
8:15 AM 41.9 °F 35.9 °F 35.1 °F 77% 29.60 in 10.0 mi WNW 10.4 mph - N/A   Overcast
8:35 AM 42.6 °F 36.3 °F 34.7 °F 74% 29.60 in 10.0 mi WNW 11.5 mph - N/A   Overcast
8:55 AM 42.8 °F 35.4 °F 34.9 °F 74% 29.60 in 10.0 mi WNW 15.0 mph - N/A   Mostly Cloudy
9:15 AM 43.2 °F 36.2 °F 33.6 °F 69% 29.61 in 10.0 mi WNW 13.8 mph 18.4 mph N/A   Scattered Clouds
9:35 AM 45.5 °F 38.9 °F 33.4 °F 63% 29.61 in 10.0 mi WNW 15.0 mph 18.4 mph N/A   Clear
9:55 AM 47.5 °F - 31.5 °F 54% 29.62 in 10.0 mi WNW 17.3 mph 24.2 mph N/A   Clear
10:15 AM 48.4 °F - 30.4 °F 50% 29.62 in 10.0 mi WNW 16.1 mph 24.2 mph N/A   Clear
10:35 AM 49.5 °F - 29.8 °F 47% 29.63 in 10.0 mi WNW 21.9 mph 25.3 mph N/A   Clear
10:55 AM 49.5 °F - 27.9 °F 43% 29.64 in 10.0 mi WNW 19.6 mph 28.8 mph N/A   Clear
11:15 AM 49.6 °F - 26.4 °F 41% 29.64 in 10.0 mi WNW 20.7 mph 29.9 mph N/A   Clear
11:35 AM 50.5 °F - 26.4 °F 39% 29.64 in 10.0 mi West 17.3 mph 24.2 mph N/A   Clear
11:55 AM 51.3 °F - 26.2 °F 38% 29.64 in 10.0 mi West 23.0 mph 28.8 mph N/A   Clear
12:15 PM 52.2 °F - 27.9 °F 39% 29.64 in 10.0 mi NW 24.2 mph 29.9 mph N/A   Clear
12:55 PM 52.7 °F - 25.5 °F 35% 29.65 in 10.0 mi West 20.7 mph 33.4 mph N/A   Clear
1:15 PM 53.2 °F - 27.7 °F 37% 29.65 in 10.0 mi West 18.4 mph 26.5 mph N/A   Clear
1:35 PM 53.6 °F - 27.0 °F 36% 29.65 in 10.0 mi West 21.9 mph 31.1 mph N/A   Clear
1:55 PM 53.6 °F - 26.1 °F 35% 29.66 in 10.0 mi West 21.9 mph 29.9 mph N/A   Clear
2:35 PM 54.0 °F - 25.0 °F 33% 29.67 in 10.0 mi West 25.3 mph 33.4 mph N/A   Clear
3:15 PM 54.3 °F - 27.9 °F 36% 29.68 in 10.0 mi NW 16.1 mph 25.3 mph N/A   Clear
3:35 PM 54.3 °F - 28.8 °F 38% 29.69 in 10.0 mi WNW 15.0 mph 27.6 mph N/A   Clear
3:55 PM 53.6 °F - 26.8 °F 36% 29.69 in 10.0 mi WNW 23.0 mph 31.1 mph N/A   Clear
4:15 PM 53.8 °F - 27.3 °F 36% 29.70 in 10.0 mi WNW 21.9 mph 27.6 mph N/A   Clear
4:35 PM 52.9 °F - 25.7 °F 35% 29.71 in 10.0 mi WNW 17.3 mph 27.6 mph N/A   Clear
4:55 PM 52.7 °F - 21.4 °F 29% 29.72 in 10.0 mi NW 23.0 mph 32.2 mph N/A   Clear
5:15 PM 52.2 °F - 21.4 °F 30% 29.74 in 10.0 mi NW 19.6 mph 25.3 mph N/A   Clear
5:35 PM 51.6 °F - 22.1 °F 32% 29.75 in 10.0 mi NW 17.3 mph 25.3 mph N/A   Clear
5:55 PM 51.1 °F - 24.1 °F 35% 29.76 in 10.0 mi WNW 16.1 mph 20.7 mph N/A   Clear
6:15 PM 50.4 °F - 22.3 °F 33% 29.78 in 10.0 mi WNW 20.7 mph 24.2 mph N/A   Clear
6:35 PM 49.1 °F - 21.0 °F 33% 29.79 in 10.0 mi NW 13.8 mph 26.5 mph N/A   Clear
6:55 PM 48.2 °F - 20.8 °F 34% 29.80 in 10.0 mi WNW 11.5 mph 18.4 mph N/A   Clear
7:15 PM 46.8 °F - 21.7 °F 37% 29.81 in 10.0 mi WNW 11.5 mph - N/A   Clear
7:35 PM 45.7 °F 40.2 °F 19.6 °F 35% 29.82 in 10.0 mi NW 11.5 mph 18.4 mph N/A   Clear
7:55 PM 43.2 °F 38.4 °F 21.6 °F 42% 29.83 in 10.0 mi WNW 8.1 mph - N/A   Clear
8:15 PM 41.9 °F 38.2 °F 21.2 °F 44% 29.84 in 10.0 mi West 5.8 mph - N/A   Clear
8:35 PM 41.7 °F 38.8 °F 21.0 °F 44% 29.85 in 10.0 mi West 4.6 mph - N/A   Clear
8:55 PM 39.0 °F 34.0 °F 21.2 °F 49% 29.86 in 10.0 mi West 6.9 mph - N/A   Clear
9:15 PM 39.4 °F 37.2 °F 21.4 °F 49% 29.87 in 10.0 mi West 3.5 mph - N/A   Clear
9:35 PM 39.4 °F 37.2 °F 21.0 °F 48% 29.87 in 10.0 mi West 3.5 mph - N/A   Clear
9:55 PM 36.9 °F - 18.1 °F 47% 29.87 in 10.0 mi Calm Calm - N/A   Clear
10:15 PM 36.9 °F - 21.9 °F 55% 29.88 in 10.0 mi Calm Calm - N/A   Clear
10:35 PM 35.6 °F - 22.8 °F 60% 29.88 in 10.0 mi Calm Calm - N/A   Clear
10:55 PM 36.5 °F 32.7 °F 21.9 °F 56% 29.88 in 10.0 mi WSW 4.6 mph - N/A   Clear
11:15 PM 34.9 °F 30.8 °F 19.9 °F 55% 29.88 in 10.0 mi WSW 4.6 mph - N/A   Clear
11:35 PM 34.7 °F 31.8 °F 20.1 °F 55% 29.89 in 10.0 mi WSW 3.5 mph - N/A   Clear
11:55 PM 34.7 °F 30.6 °F 21.9 °F 60% 29.90 in 10.0 mi WSW 4.6 mph - N/A   Clear